Terminal Aerodrome Forecast
Issued by NWS

Current Version | Previous Version | Text Only | Print | Product List | Glossary On
Versions: 1 2 3 4 5 6 7 8 9 10 11 12 13 14 15 16 17 18 19
900 FTUS41 KGYX 232117 AAA TAFLEB TAF AMD KLEB 232117Z 2321/2418 30008G15KT P6SM SCT050 TEMPO 2321/2323 1SM +TSRA BKN050CB FM232300 36003KT P6SM SCT200 FM240700 00000KT 1/2SM FG BKN002 FM241200 34005KT P6SM SKC=

USA.gov is the U.S. government's official web portal to all federal, state and local government web resources and services.